This is the latest recevied weather packets stored in our database for station/object K6CED. If no packets are shown the sender has not sent any weather packets the latest 1 day(s).
| Time | Temp. | Humidity | Pressure | Rain* | Wind** | Luminosity | Snow |
|---|---|---|---|---|---|---|---|
| 1778012303 | 17.22° C | 58% | 1017 hPa | 0 mm | 2.24 m/s, 103° | 307 W/m² | - |
| 1778012000 | 17.22° C | 58% | 1017 hPa | 0 mm | 1.34 m/s, 112° | 392 W/m² | - |
| 1778011698 | 17.22° C | 57% | 1017.1 hPa | 0 mm | 3.13 m/s, 345° | 333 W/m² | - |
| 1778011395 | 17.22° C | 56% | 1017 hPa | 0 mm | 0.89 m/s, 69° | 333 W/m² | - |
| 1778011090 | 17.22° C | 57% | 1017.2 hPa | 0 mm | 0.89 m/s, 25° | 350 W/m² | - |
| 1778010788 | 17.78° C | 56% | 1017.1 hPa | 0 mm | 3.13 m/s, 98° | 1140 W/m² | - |
| 1778010485 | 17.78° C | 57% | 1017.2 hPa | 0 mm | 0.89 m/s, 80° | 1035 W/m² | - |
| 1778010182 | 17.78° C | 59% | 1017.4 hPa | 0 mm | 1.79 m/s, 93° | 1033 W/m² | - |
| 1778009877 | 16.67° C | 62% | 1017.3 hPa | 0 mm | 0 m/s | 1049 W/m² | - |
| 1778009575 | 16.67° C | 60% | 1017.4 hPa | 0 mm | 1.34 m/s, 341° | 239 W/m² | - |
| 1778009273 | 16.67° C | 62% | 1017.4 hPa | 0 mm | 0.89 m/s, 76° | 1126 W/m² | - |
| 1778008971 | 16.67° C | 63% | 1017.4 hPa | 0 mm | 0.45 m/s, 94° | 250 W/m² | - |
| 1778008668 | 16.11° C | 63% | 1017.4 hPa | 0 mm | 1.34 m/s, 106° | 1105 W/m² | - |
| 1778008367 | 16.11° C | 63% | 1017.3 hPa | 0 mm | 1.34 m/s, 135° | 318 W/m² | - |
| 1778008062 | 16.11° C | 64% | 1017.5 hPa | 0 mm | 1.79 m/s, 121° | 382 W/m² | - |
| 1778007757 | 15.56° C | 64% | 1017.3 hPa | 0 mm | 1.79 m/s, 125° | 174 W/m² | - |
| 1778007454 | 16.11° C | 62% | 1017.3 hPa | 0 mm | 1.79 m/s, 117° | 100 W/m² | - |
| 1778007151 | 15.56° C | 61% | 1017.2 hPa | 0 mm | 1.79 m/s, 126° | 139 W/m² | - |
| 1778006847 | 16.11° C | 60% | 1017.3 hPa | 0 mm | 1.34 m/s, 112° | 114 W/m² | - |
| 1778006544 | 16.11° C | 61% | 1017.4 hPa | 0 mm | 0 m/s | 130 W/m² | - |
| 1778006241 | 16.11° C | 62% | 1017.4 hPa | 0 mm | 0.89 m/s, 116° | 141 W/m² | - |
| 1778005950 | 16.11° C | 63% | 1017.3 hPa | 0 mm | 0.89 m/s, 38° | 184 W/m² | - |
| 1778005634 | 16.67° C | 62% | 1017.4 hPa | 0 mm | 0.89 m/s, 5° | 237 W/m² | - |
| 1778005332 | 16.67° C | 59% | 1017.4 hPa | 0 mm | 2.68 m/s, 5° | 356 W/m² | - |
| 1778005028 | 17.78° C | 59% | 1017.3 hPa | 0 mm | 0 m/s | 955 W/m² | - |
* Rain latest hour (hover to see other rain measurements)
** Current wind speed in m/s (hover to see current wind gust speed)